AirNav   Air Wisconsin pilot careers
 
 1031 users online  

55S Packwood Airport
Packwood, Washington, USA

GOING TO PACKWOOD?


FAA INFORMATION EFFECTIVE 29 MARCH 2018

Location

FAA Identifier: 55S
Lat/Long: 46-36-14.9840N / 121-40-40.4390W
46-36.249733N / 121-40.673983W
46.6041622 / -121.6778997
(estimated)
Elevation: 1057 ft. / 322 m (estimated)
Variation: 20E (1985)
Time zone: UTC -7 (UTC -8 during Standard Time)
Zip code: 98361

Airport Operations

Airport use: Open to the public
Activation date: 09/1948
Control tower: no
ARTCC: SEATTLE CENTER
FSS: SEATTLE FLIGHT SERVICE STATION
NOTAMs facility: SEA (NOTAM-D service available)
Attendance: UNATNDD
Wind indicator: lighted
Segmented circle: no
Lights: ACTVT MIRL RY 01/19 - CTAF-122.9.
Beacon: white-green (lighted land airport)
ACTVT BCN - CTAF-122.9.

Airport Communications

CTAF: 122.9

Airport Services

Parking: tiedowns
Airframe service: NONE
Powerplant service: NONE
Bottled oxygen: NONE
Bulk oxygen: NONE

Runway Information

Runway 1/19

Dimensions: 2356 x 38 ft. / 718 x 12 m
Surface: asphalt, in fair condition
Runway edge lights: medium intensity
Runway edge markings: RY 19 PAINT FADED AND CHIPPED.
Operational restrictions: RY 01/19 SOFT SHOULDERS BOTH SIDES; USE RY FOR BACK TAXI.
RUNWAY 1  RUNWAY 19
Latitude: 46-36.079850N46-36.419595N
Longitude: 121-40.809333W121-40.538632W
Elevation: 1049.0 ft.1057.0 ft.
Traffic pattern: leftleft
Markings: basic, in poor conditionbasic, in poor condition
Obstructions: 5 ft. fence, 200 ft. from runway
RWY 01 +5' FENCE AT 140' AND -5' DITCH AT 155' FROM THR.
40 ft. trees, 200 ft. from runway, 125 ft. right of centerline
+4' FENCE AT 120', 0' PAVED ROAD AT 130' AND 33' TREES 113'-200' FR THR 100'R.

Airport Ownership and Management from official FAA records

Ownership: Publicly-owned
Owner: LEWIS COUNTY
2025 NE KRESKY AVE
CHEHALIS, WA 98532
Phone 360-740-2606
Manager: LARRY MASON
826 CINEBAR ROAD
CINEBAR, WA 98533-9732
Phone 360-269-6727

Airport Operational Statistics

Aircraft based on the field: 3
Single engine airplanes: 2
Ultralights: 1
    
Aircraft operations: avg 24/day *
80% transient general aviation
17% local general aviation
3% military
* for 12-month period ending 31 July 2015

Additional Remarks

TREES AND BLDGS IN TRANSITIONAL SURFACES.
TREES & FENCES IN PRIM SFC.

Instrument Procedures

There are no published instrument procedures at 55S.

Some nearby airports with instrument procedures:

KPLU - Pierce County Airport - Thun Field (39 nm NW)
KTCM - McChord Field Airport (Joint Base Lewis-McChord) (46 nm NW)
KGRF - Gray Army Airfield (Joint Base Lewis-McChord) (47 nm NW)
KYKM - Yakima Air Terminal/McAllister Field (47 nm E)
KTDO - Ed Carlson Memorial Field - South Lewis Co Airport (47 nm W)
 
Loc | Ops | Rwys | IFR | FBO | Links
Com | Nav | Svcs | Stats | Notes

AirNav Hotels Sweepstakes
 
Area around 55S (Packwood Airport)
 
Road maps at: MapQuest Bing Google
 
Aerial photo
WARNING: Photo may not be current or correct
Aerial photo of 55S (Packwood Airport)
Photo taken 22-Feb-2015
looking southeast.

Do you have a better or more recent aerial photo of Packwood Airport that you would like to share? If so, please send us your photo.

 
Sectional chart

 
Airport distance calculator
Flying to Packwood Airport? Find the distance to fly.

From to 55S

Sunrise and sunset
Times for 22-Apr-2018
 Local
(UTC-7)
 Zulu
(UTC)
Morning civil twilight05:3512:35
Sunrise06:0813:08
Sunset20:0303:03
Evening civil twilight20:3503:35

Current date and time
Zulu (UTC)  22-Apr-2018 18:04:36
Local (UTC-7)  22-Apr-2018 11:04:36
 
METAR
KPLU 
39nm NW 
221755Z AUTO 01007KT 290V070 10SM CLR 11/05 A3040 RMK AO2
KSMP 
43nm N 
221656Z AUTO 00000KT 10SM CLR 01/M04 A3029 RMK AO2 SLP280 T00111039 $
KTCM 
45nm NW 
221658Z AUTO 03009KT 10SM OVC020 08/06 A3041 RMK AO2 SLP304 T00840059 $
KGRF 
46nm NW 
221658Z AUTO 34009KT 10SM OVC022 08/06 A3040 RMK AO2 SLP300 T00840057 RVRNO $
KYKM 
47nm E 
221753Z 33004KT 10SM CLR 13/M03 A3033 RMK AO2 SLP274 T01281028 10133 21006 58002
TAF
KTCM 
45nm NW 
221303Z 2213/2319 01006KT 9999 SCT200 QNH3038INS TEMPO 2215/2301 02010G15KT BECMG 2303/2304 02006KT 9999 FEW200 QNH3030INS TX14/2223Z TN05/2213Z
KGRF 
46nm NW 
221303Z 2213/2319 VRB06KT 9999 SCT200 QNH3038INS BECMG 2214/2215 35009KT 9999 SCT200 QNH3030INS BECMG 2305/2306 VRB06KT 9999 FEW200 QNH3030INS BECMG 2316/2317 36009KT 9999 FEW200 QNH3030INS TX14/2223Z TN02/2213Z
KYKM 
47nm E 
221740Z 2218/2318 VRB05KT P6SM BKN250 FM222200 30008KT P6SM SCT250 FM230400 28005KT P6SM SCT200 FM231500 VRB05KT P6SM SKC
NOTAMs
Click for the latest NOTAMs
NOTAMs are issued by the DoD/FAA and will open in a separate window not controlled by AirNav.

 

 
 

Would you like to see your business listed on this page?

 If your business provides an interesting product or service to pilots, flight crews, aircraft, or users of the Packwood Airport, you should consider listing it here.  To start the listing process, click on the button below
 
Add a business
 

Other Pages about Packwood Airport

Update a link
 
Copyright © AirNav, LLC. All rights reserved. Privacy Policy  Contact